This is the latest recevied weather packets stored in our database for station/object KD7ECD. If no packets are shown the sender has not sent any weather packets the latest 10 day(s).
| Time | Temp. | Humidity | Pressure | Rain* | Wind** | Luminosity | Snow |
|---|---|---|---|---|---|---|---|
| 1777868058 | 12.22° C | 82% | 1016.5 hPa | 0 mm | - | 0 W/m² | - |
| 1777867452 | 12.22° C | 82% | 1016.3 hPa | 0 mm | - | 0 W/m² | - |
| 1777866851 | 12.22° C | 80% | 1016.1 hPa | 0 mm | - | 0 W/m² | - |
| 1777866251 | 12.78° C | 79% | 1015.9 hPa | 0 mm | - | 0 W/m² | - |
| 1777865646 | 12.78° C | 79% | 1015.9 hPa | 0 mm | - | 0 W/m² | - |
| 1777865045 | 12.78° C | 80% | 1015.7 hPa | 0 mm | - | 0 W/m² | - |
| 1777864445 | 12.78° C | 81% | 1015.7 hPa | 0 mm | - | 0 W/m² | - |
| 1777863844 | 12.78° C | 81% | 1015.6 hPa | 0 mm | - | 0 W/m² | - |
| 1777863243 | 13.33° C | 79% | 1015.6 hPa | 0 mm | - | 3 W/m² | - |
| 1777862642 | 13.33° C | 76% | 1015.2 hPa | 0 mm | - | 10 W/m² | - |
| 1777862042 | 13.89° C | 75% | 1015.1 hPa | 0 mm | - | 18 W/m² | - |
| 1777861440 | 13.89° C | 74% | 1015.1 hPa | 0 mm | - | 26 W/m² | - |
| 1777860839 | 14.44° C | 72% | 1015 hPa | 0 mm | - | 47 W/m² | - |
| 1777860239 | 14.44° C | 72% | 1014.7 hPa | 0 mm | - | 54 W/m² | - |
| 1777859637 | 14.44° C | 72% | 1014.9 hPa | 0 mm | - | 61 W/m² | - |
| 1777859035 | 15° C | 71% | 1014.7 hPa | 0 mm | - | 101 W/m² | - |
| 1777858430 | 15.56° C | 69% | 1014.5 hPa | 0 mm | - | 141 W/m² | - |
| 1777857831 | 15.56° C | 68% | 1014.6 hPa | 0 mm | - | 181 W/m² | - |
| 1777857230 | 16.11° C | 67% | 1014.8 hPa | 0 mm | - | 239 W/m² | - |
| 1777856628 | 16.67° C | 66% | 1014.6 hPa | 0 mm | - | 288 W/m² | - |
| 1777856027 | 16.67° C | 65% | 1014.7 hPa | 0 mm | - | 285 W/m² | - |
| 1777855423 | 16.67° C | 65% | 1014.6 hPa | 0 mm | - | 222 W/m² | - |
| 1777854822 | 16.67° C | 66% | 1014.6 hPa | 0 mm | - | 332 W/m² | - |
| 1777854220 | 16.67° C | 66% | 1014.6 hPa | 0 mm | - | 246 W/m² | - |
| 1777853620 | 16.67° C | 66% | 1014.4 hPa | 0 mm | - | 334 W/m² | - |
* Rain latest hour (hover to see other rain measurements)
** Current wind speed in m/s (hover to see current wind gust speed)